Camarillo, CA

1:07 AM PDT on May 24, 2017 (GMT -0700)
Camarillo

Weather History for KCMA - July, 2013

Change the Weather History Date:

Tuesday, July 2, 2013

  Actual Average Record
Temperature  
Mean Temperature 75 °F 66 °F  
Max Temperature 81 °F 75 °F 88 °F (1985)
Min Temperature 68 °F 58 °F 47 °F (1949)
Degree Days  
Heating Degree Days 0 0  
Month to date heating degree days 0 1  
Since 1 June heating degree days 0 44  
Since 1 July heating degree days 0 1  
Cooling Degree Days 10 2  
Month to date cooling degree days 23 4  
Year to date cooling degree days 275 58  
Since 1 June cooling degree days 169 27  
Growing Degree Days 24 (Base 50)    
Moisture  
Dew Point 62 °F    
Average Humidity 66    
Maximum Humidity 78    
Minimum Humidity 54    
Precipitation  
Precipitation 0.00 in 0.00 in 0.00 in (2017)
Month to date precipitation 0.00 0.00  
Year to date precipitation 2.15 10.98  
Since 1 July precipitation 0.00  
Sea Level Pressure  
Sea Level Pressure 29.94 in    
Wind  
Wind Speed 5 mph (SW)    
Max Wind Speed 16 mph    
Max Gust Speed 22 mph    
Visibility 6 miles    
Events      
T = Trace of Precipitation, MM = Missing Value Source: NWS Daily Summary

Daily Weather History Graph

Daily Weather History Graph

Search for Another Location

Airport or City:

Trip Planner

Search our weather history database for the weather conditions in past years. The results will help you decide how hot, cold, wet, or windy it might be!

Date:

Astronomy

Jul. 02, 2013 Rise Set
Actual Time 5:48 AM PDT 8:12 PM PDT
Civil Twilight 5:19 AM PDT 8:41 PM PDT
Nautical Twilight 4:43 AM PDT 9:17 PM PDT
Astronomical Twilight 4:04 AM PDT 9:56 PM PDT
Moon 1:46 AM PDT (7/2) 3:36 PM PDT (7/2)
Length of Visible Light 15h 21m
Length of Day
14h 23m
Waning Crescent, 25% of the Moon is Illuminated
Jul 2
Waning Crescent
Jul 8
New
Jul 15
First Quarter
Jul 22
Full
Jul 29
Last Quarter

Hourly Weather History & Observations

Time (PDT) Temp. Heat Index Dew Point Humidity Pressure Visibility Wind Dir Wind Speed Gust Speed Precip Events Conditions
12:55 AM 72.0 °F - 63.0 °F 73% 29.90 in 10.0 mi SW 3.5 mph - N/A   Clear
1:33 AM 69.8 °F - 62.6 °F 78% 29.88 in 5.0 mi SSW 3.5 mph - N/A   Haze
1:41 AM 69.8 °F - 62.6 °F 78% 29.88 in 4.0 mi SSW 3.5 mph - N/A   Haze
1:46 AM 69.8 °F - 62.6 °F 78% 29.88 in 1.8 mi Calm Calm - N/A   Haze
1:53 AM 69.8 °F - 62.6 °F 78% 29.88 in 1.0 mi Calm Calm - N/A   Haze
1:55 AM 69.1 °F - 62.1 °F 78% 29.90 in 1.2 mi Calm Calm - N/A   Haze
2:15 AM 69.8 °F - 62.6 °F 78% 29.88 in 2.0 mi Calm Calm - N/A   Haze
2:41 AM 69.8 °F - 62.6 °F 78% 29.88 in 5.0 mi Calm Calm - N/A   Haze
2:49 AM 69.8 °F - 62.6 °F 78% 29.88 in 1.8 mi Calm Calm - N/A   Haze
2:55 AM 69.1 °F - 62.1 °F 78% 29.91 in 1.0 mi Calm Calm - N/A   Haze
3:02 AM 69.8 °F - 62.6 °F 78% 29.89 in 0.5 mi Calm Calm - N/A   Haze
3:55 AM 68.0 °F - 62.1 °F 81% 29.92 in 1.0 mi Calm Calm - N/A   Haze
4:07 AM 68.0 °F - 62.6 °F 83% 29.90 in 0.8 mi Calm Calm - N/A   Haze
4:55 AM 68.0 °F - 62.1 °F 81% 29.93 in 0.5 mi Calm Calm - N/A   Haze
5:55 AM 68.0 °F - 62.1 °F 81% 29.91 in 0.5 mi Calm Calm - N/A   Haze
7:55 AM 68.0 °F - 62.1 °F 81% 29.96 in 0.5 mi SW 3.5 mph - N/A   Haze
8:27 AM 69.8 °F - 62.6 °F 78% 29.95 in 3.0 mi WSW 4.6 mph - N/A   Haze
8:45 AM 69.8 °F - 62.6 °F 78% 29.94 in 2.5 mi SW 4.6 mph - N/A   Haze
8:55 AM 70.0 °F - 62.1 °F 76% 29.97 in 2.5 mi South 4.6 mph - N/A   Haze
9:01 AM 69.8 °F - 62.6 °F 78% 29.95 in 5.0 mi SSW 5.8 mph - N/A   Haze
9:47 AM 71.6 °F - 62.6 °F 73% 29.95 in 5.0 mi SW 5.8 mph - N/A   Haze
9:55 AM 72.0 °F - 62.1 °F 71% 29.97 in 5.0 mi Variable 4.6 mph - N/A   Haze
10:03 AM 73.4 °F - 62.6 °F 69% 29.94 in 10.0 mi SW 3.5 mph - N/A   Scattered Clouds
10:55 AM 77.0 °F - 63.0 °F 62% 29.98 in 10.0 mi SW 10.4 mph - N/A   Clear
11:34 AM 75.2 °F - 62.6 °F 65% 29.97 in 9.0 mi WSW 11.5 mph - N/A   Mostly Cloudy
11:55 AM 75.9 °F - 63.0 °F 64% 30.01 in 9.0 mi WSW 12.7 mph - N/A   Mostly Cloudy
12:55 PM 77.0 °F - 63.0 °F 62% 30.03 in 10.0 mi WSW 15.0 mph 21.9 mph N/A   Mostly Cloudy
1:55 PM 78.1 °F - 63.0 °F 60% 30.01 in 10.0 mi WSW 13.8 mph - N/A   Mostly Cloudy
2:30 PM 78.8 °F - 62.6 °F 57% 29.98 in 10.0 mi SW 9.2 mph - N/A   Partly Cloudy
2:55 PM 79.0 °F - 62.1 °F 56% 29.99 in 10.0 mi WSW 6.9 mph - N/A   Partly Cloudy
3:55 PM 80.1 °F 81.2 °F 62.1 °F 54% 29.97 in 10.0 mi SW 6.9 mph - N/A   Clear
4:55 PM 79.0 °F - 62.1 °F 56% 29.95 in 10.0 mi SW 9.2 mph - N/A   Clear
5:55 PM 75.0 °F - 61.0 °F 62% 29.95 in 10.0 mi SSW 3.5 mph - N/A   Clear
6:55 PM 73.9 °F - 62.1 °F 66% 29.96 in 10.0 mi SSW 6.9 mph - N/A   Clear
7:25 PM 71.6 °F - 60.8 °F 69% 29.94 in 10.0 mi SW 11.5 mph - N/A   Partly Cloudy
7:36 PM 71.6 °F - 60.8 °F 69% 29.94 in 10.0 mi SW 8.1 mph - N/A   Mostly Cloudy
7:55 PM 71.1 °F - 61.0 °F 70% 29.96 in 10.0 mi WSW 8.1 mph - N/A   Overcast
8:55 PM 71.1 °F - 61.0 °F 70% 29.96 in 10.0 mi Calm Calm - N/A   Overcast
9:50 PM 71.6 °F - 60.8 °F 69% 29.93 in 10.0 mi Calm Calm - N/A   Scattered Clouds
9:55 PM 71.1 °F - 61.0 °F 70% 29.96 in 10.0 mi Calm Calm - N/A   Partly Cloudy
10:55 PM 70.0 °F - 60.1 °F 71% 29.94 in 10.0 mi WNW 3.5 mph - N/A   Clear
11:55 PM 70.0 °F - 61.0 °F 73% 29.93 in 10.0 mi West 5.8 mph - N/A   Clear